| time (UTC) | temp F | wind direction | speed MPH | gust MPH | rain 1hr in | rain 24hr in | rain mn in | humidity % | barometer mb |
| 20260905175045 | 77 | 355 | 3.0 | 12.0 | 0.00 | 0.00 | 0.00 | 62 | 1009.5 |
| 20260905174558 | 78 | 344 | 6.0 | 13.0 | 0.00 | 0.00 | 0.00 | 61 | 1009.4 |
| 20260905174041 | 78 | 0 | 5.0 | 13.0 | 0.00 | 0.00 | 0.00 | 62 | 1009.4 |
| 20260905173544 | 77 | 21 | 2.0 | 10.0 | 0.00 | 0.00 | 0.00 | 63 | 1009.3 |
| 20260905173110 | 76 | 301 | 4.0 | 12.0 | 0.00 | 0.00 | 0.00 | 63 | 1009.5 |
| 20260905172545 | 76 | 0 | 5.0 | 16.0 | 0.00 | 0.00 | 0.00 | 65 | 1009.4 |
| 20260905172041 | 76 | 322 | 7.0 | 16.0 | 0.00 | 0.00 | 0.00 | 65 | 1009.6 |
| 20260905171558 | 76 | 18 | 2.0 | 10.0 | 0.00 | 0.00 | 0.00 | 63 | 1009.5 |
| 20260905171042 | 77 | 343 | 6.0 | 11.0 | 0.00 | 0.00 | 0.00 | 61 | 1009.6 |
| 20260905170542 | 77 | 360 | 2.0 | 11.0 | 0.00 | 0.00 | 0.00 | 64 | 1009.6 |
| 20260905170056 | 77 | 22 | 1.0 | 9.0 | 0.00 | 0.00 | 0.00 | 66 | 1009.6 |
| 20260905165545 | 76 | 272 | 4.0 | 12.0 | 0.00 | 0.00 | 0.00 | 66 | 1009.7 |
| 20260905165044 | 75 | 289 | 6.0 | 12.0 | 0.00 | 0.00 | 0.00 | 67 | 1009.7 |
| 20260905164600 | 75 | 360 | 6.0 | 12.0 | 0.00 | 0.00 | 0.00 | 68 | 1009.6 |
| 20260905164042 | 75 | 304 | 5.0 | 12.0 | 0.00 | 0.00 | 0.00 | 66 | 1009.6 |
| 20260905163541 | 76 | 22 | 6.0 | 11.0 | 0.00 | 0.00 | 0.00 | 66 | 1009.7 |
| 20260905163105 | 76 | 258 | 3.0 | 11.0 | 0.00 | 0.00 | 0.00 | 64 | 1009.5 |
| 20260905162544 | 75 | 44 | 5.0 | 11.0 | 0.00 | 0.00 | 0.00 | 67 | 1009.6 |
| 20260905162041 | 75 | 340 | 4.0 | 12.0 | 0.00 | 0.00 | 0.00 | 68 | 1009.7 |
| 20260905161555 | 75 | 10 | 4.0 | 12.0 | 0.00 | 0.00 | 0.00 | 67 | 1009.7 |
| 20260905161045 | 75 | 360 | 4.0 | 13.0 | 0.00 | 0.00 | 0.00 | 67 | 1009.8 |
| 20260905160545 | 76 | 299 | 5.0 | 13.0 | 0.00 | 0.00 | 0.00 | 67 | 1009.8 |
| 20260905160059 | 76 | 21 | 6.0 | 16.0 | 0.00 | 0.00 | 0.00 | 66 | 1009.7 |
| 20260905155544 | 75 | 14 | 4.0 | 17.0 | 0.00 | 0.00 | 0.00 | 68 | 1009.8 |
| 20260905155041 | 75 | 22 | 9.0 | 17.0 | 0.00 | 0.00 | 0.00 | 66 | 1009.7 |
| 20260905154557 | 75 | 29 | 8.0 | 15.0 | 0.00 | 0.00 | 0.00 | 67 | 1009.8 |
| 20260905154042 | 74 | 9 | 5.0 | 12.0 | 0.00 | 0.00 | 0.00 | 68 | 1009.7 |
| 20260905153540 | 74 | 40 | 5.0 | 13.0 | 0.00 | 0.00 | 0.00 | 69 | 1010.0 |
| 20260905153055 | 74 | 36 | 8.0 | 17.0 | 0.00 | 0.00 | 0.00 | 67 | 1009.9 |
| 20260905152545 | 75 | 32 | 9.0 | 17.0 | 0.00 | 0.00 | 0.00 | 68 | 1010.0 |
| 20260905152042 | 75 | 351 | 6.0 | 16.0 | 0.00 | 0.00 | 0.00 | 69 | 1010.0 |
| 20260905151551 | 75 | 74 | 9.0 | 16.0 | 0.00 | 0.00 | 0.00 | 69 | 1009.8 |
| 20260905151047 | 75 | 40 | 5.0 | 11.0 | 0.00 | 0.00 | 0.00 | 70 | 1010.0 |
| 20260905150541 | 74 | 26 | 3.0 | 13.0 | 0.00 | 0.00 | 0.00 | 72 | 1009.9 |
| 20260905145544 | 74 | 66 | 8.0 | 14.0 | 0.00 | 0.00 | 0.00 | 70 | 1009.9 |
| 20260905145041 | 74 | 346 | 6.0 | 12.0 | 0.00 | 0.00 | 0.00 | 71 | 1010.0 |
| 20260905144559 | 73 | 37 | 5.0 | 12.0 | 0.00 | 0.00 | 0.00 | 71 | 1009.9 |
| 20260905144042 | 74 | 318 | 4.0 | 12.0 | 0.00 | 0.00 | 0.00 | 70 | 1010.0 |
| 20260905143548 | 74 | 17 | 6.0 | 13.0 | 0.00 | 0.00 | 0.00 | 72 | 1009.9 |
| 20260905143108 | 74 | 318 | 4.0 | 13.0 | 0.00 | 0.00 | 0.00 | 71 | 1009.7 |
| 20260905142546 | 74 | 341 | 8.0 | 13.0 | 0.00 | 0.00 | 0.00 | 70 | 1009.7 |
| 20260905142046 | 74 | 309 | 3.0 | 9.0 | 0.00 | 0.00 | 0.00 | 72 | 1009.8 |
| 20260905141615 | 74 | 38 | 4.0 | 11.0 | 0.00 | 0.00 | 0.00 | 72 | 1009.8 |
| 20260905141044 | 73 | 22 | 2.0 | 12.0 | 0.00 | 0.00 | 0.00 | 73 | 1009.7 |
| 20260905140546 | 73 | 29 | 5.0 | 13.0 | 0.00 | 0.00 | 0.00 | 73 | 1009.8 |
| 20260905140109 | 73 | 44 | 5.0 | 14.0 | 0.00 | 0.00 | 0.00 | 73 | 1009.7 |
| 20260905135540 | 72 | 19 | 8.0 | 14.0 | 0.00 | 0.00 | 0.00 | 73 | 1009.7 |
| 20260905135042 | 73 | 48 | 5.0 | 14.0 | 0.00 | 0.00 | 0.00 | 73 | 1009.9 |
| 20260905134612 | 72 | 11 | 2.0 | 14.0 | 0.00 | 0.00 | 0.00 | 75 | 1009.8 |
| 20260905134042 | 72 | 33 | 6.0 | 14.0 | 0.00 | 0.00 | 0.00 | 75 | 1009.8 |
| 20260905133544 | 71 | 12 | 7.0 | 13.0 | 0.00 | 0.00 | 0.00 | 75 | 1009.9 |
| 20260905133102 | 71 | 36 | 4.0 | 10.0 | 0.00 | 0.00 | 0.00 | 76 | 1010.0 |
| 20260905132544 | 71 | 29 | 4.0 | 10.0 | 0.00 | 0.00 | 0.00 | 76 | 1010.0 |
| 20260905132042 | 71 | 60 | 3.0 | 10.0 | 0.00 | 0.00 | 0.00 | 75 | 1010.1 |
| 20260905131608 | 71 | 32 | 3.0 | 11.0 | 0.00 | 0.00 | 0.00 | 76 | 1010.0 |
| 20260905131045 | 71 | 352 | 6.0 | 12.0 | 0.00 | 0.00 | 0.00 | 75 | 1010.2 |
| 20260905130541 | 71 | 34 | 4.0 | 12.0 | 0.00 | 0.00 | 0.00 | 76 | 1010.2 |
| 20260905130104 | 71 | 17 | 5.0 | 12.0 | 0.00 | 0.00 | 0.00 | 75 | 1010.1 |
| 20260905125544 | 71 | 26 | 3.0 | 11.0 | 0.00 | 0.00 | 0.00 | 76 | 1010.1 |
| 20260905125044 | 70 | 40 | 4.0 | 11.0 | 0.00 | 0.00 | 0.00 | 77 | 1010.3 |
| 20260905124558 | 70 | 351 | 6.0 | 10.0 | 0.00 | 0.00 | 0.00 | 77 | 1010.2 |
| 20260905124044 | 70 | 13 | 3.0 | 9.0 | 0.00 | 0.00 | 0.00 | 78 | 1010.3 |
| 20260905123544 | 70 | 360 | 3.0 | 8.0 | 0.00 | 0.00 | 0.00 | 78 | 1010.3 |
| 20260905123102 | 70 | 347 | 2.0 | 6.0 | 0.00 | 0.00 | 0.00 | 78 | 1010.3 |
| 20260905122541 | 69 | 26 | 2.0 | 8.0 | 0.00 | 0.00 | 0.00 | 79 | 1010.3 |
| 20260905122041 | 69 | 360 | 3.0 | 9.0 | 0.00 | 0.00 | 0.00 | 80 | 1010.4 |
| 20260905121556 | 69 | 360 | 3.0 | 9.0 | 0.00 | 0.00 | 0.00 | 80 | 1010.3 |
| 20260905121041 | 68 | 17 | 3.0 | 9.0 | 0.00 | 0.00 | 0.00 | 81 | 1010.3 |
| 20260905120545 | 68 | 44 | 2.0 | 9.0 | 0.00 | 0.00 | 0.00 | 81 | 1010.2 |
| 20260905120058 | 67 | 17 | 3.0 | 9.0 | 0.00 | 0.00 | 0.00 | 81 | 1010.3 |
| 20260905115548 | 68 | 346 | 4.0 | 10.0 | 0.00 | 0.00 | 0.00 | 80 | 1010.3 |
| 20260905115047 | 68 | 60 | 2.0 | 10.0 | 0.00 | 0.00 | 0.00 | 81 | 1010.2 |
| 20260905114628 | 68 | 43 | 4.0 | 10.0 | 0.00 | 0.00 | 0.00 | 81 | 1010.1 |
| 20260905114041 | 68 | 17 | 3.0 | 12.0 | 0.00 | 0.00 | 0.00 | 81 | 1009.9 |
| 20260905113541 | 67 | 330 | 4.0 | 12.0 | 0.00 | 0.00 | 0.00 | 81 | 1009.9 |
| 20260905113057 | 67 | 307 | 6.0 | 10.0 | 0.00 | 0.00 | 0.00 | 81 | 1009.7 |
| 20260905112541 | 67 | 349 | 3.0 | 11.0 | 0.00 | 0.00 | 0.00 | 82 | 1009.7 |
| 20260905112040 | 67 | 329 | 4.0 | 11.0 | 0.00 | 0.00 | 0.00 | 82 | 1009.6 |
| 20260905111554 | 66 | 328 | 3.0 | 9.0 | 0.00 | 0.00 | 0.00 | 82 | 1009.6 |
| 20260905111043 | 66 | 338 | 4.0 | 9.0 | 0.00 | 0.00 | 0.00 | 82 | 1009.6 |
| 20260905110542 | 66 | 335 | 3.0 | 8.0 | 0.00 | 0.00 | 0.00 | 83 | 1009.4 |
| 20260905110052 | 66 | 360 | 3.0 | 6.0 | 0.00 | 0.00 | 0.00 | 83 | 1009.4 |
| 20260905105541 | 65 | 0 | 1.0 | 4.0 | 0.00 | 0.01 | 0.00 | 84 | 1009.5 |
| 20260905105041 | 65 | 317 | 1.0 | 5.0 | 0.00 | 0.01 | 0.00 | 84 | 1009.3 |
| 20260905104558 | 65 | 360 | 2.0 | 5.0 | 0.00 | 0.01 | 0.00 | 84 | 1009.4 |
| 20260905104042 | 65 | 5 | 2.0 | 5.0 | 0.00 | 0.01 | 0.00 | 84 | 1009.4 |
| 20260905103542 | 65 | 30 | 2.0 | 5.0 | 0.00 | 0.01 | 0.00 | 84 | 1009.4 |
| 20260905103056 | 65 | 10 | 2.0 | 5.0 | 0.00 | 0.01 | 0.00 | 84 | 1009.5 |
| 20260905102541 | 65 | 15 | 2.0 | 5.0 | 0.00 | 0.01 | 0.00 | 84 | 1009.3 |
| 20260905102041 | 65 | 32 | 2.0 | 5.0 | 0.00 | 0.01 | 0.00 | 84 | 1009.2 |
| 20260905101553 | 65 | 10 | 3.0 | 6.0 | 0.00 | 0.01 | 0.00 | 84 | 1009.3 |
| 20260905101040 | 65 | 333 | 2.0 | 6.0 | 0.00 | 0.01 | 0.00 | 83 | 1009.1 |
| 20260905100541 | 65 | 334 | 2.0 | 5.0 | 0.00 | 0.01 | 0.00 | 83 | 1009.1 |
| 20260905100111 | 65 | 360 | 1.0 | 7.0 | 0.00 | 0.01 | 0.00 | 83 | 1009.2 |
| 20260905095541 | 66 | 315 | 3.0 | 8.0 | 0.00 | 0.47 | 0.00 | 83 | 1009.1 |
| 20260905095043 | 66 | 9 | 2.0 | 8.0 | 0.00 | 0.47 | 0.00 | 83 | 1009.2 |
| 20260905094603 | 66 | 337 | 3.0 | 8.0 | 0.00 | 0.47 | 0.00 | 83 | 1009.0 |
| 20260905094040 | 66 | 320 | 3.0 | 8.0 | 0.00 | 0.47 | 0.00 | 82 | 1009.1 |
| 20260905093541 | 66 | 22 | 3.0 | 9.0 | 0.00 | 0.47 | 0.00 | 82 | 1009.0 |
| 20260905093057 | 66 | 360 | 4.0 | 9.0 | 0.00 | 0.47 | 0.00 | 82 | 1009.0 |
| 20260905092541 | 66 | 15 | 4.0 | 8.0 | 0.00 | 0.47 | 0.00 | 82 | 1009.0 |
| 20260905092041 | 66 | 16 | 4.0 | 7.0 | 0.00 | 0.47 | 0.00 | 82 | 1009.0 |
| 20260905091600 | 66 | 344 | 3.0 | 7.0 | 0.00 | 0.47 | 0.00 | 81 | 1009.0 |
| 20260905091043 | 67 | 338 | 3.0 | 7.0 | 0.00 | 0.47 | 0.00 | 81 | 1009.0 |
| 20260905090541 | 67 | 21 | 3.0 | 7.0 | 0.00 | 0.47 | 0.00 | 81 | 1008.8 |
| 20260905090057 | 67 | 13 | 3.0 | 8.0 | 0.00 | 0.47 | 0.00 | 80 | 1008.9 |
| 20260905085542 | 67 | 345 | 4.0 | 8.0 | 0.00 | 0.93 | 0.00 | 80 | 1008.9 |
| 20260905085040 | 67 | 360 | 3.0 | 10.0 | 0.00 | 0.93 | 0.00 | 80 | 1009.0 |
| 20260905084554 | 68 | 25 | 4.0 | 10.0 | 0.00 | 0.93 | 0.00 | 79 | 1008.9 |
| 20260905084041 | 68 | 30 | 4.0 | 12.0 | 0.00 | 0.93 | 0.00 | 79 | 1008.9 |
| 20260905083544 | 68 | 9 | 5.0 | 12.0 | 0.00 | 0.93 | 0.00 | 78 | 1009.0 |
| 20260905083051 | 68 | 15 | 2.0 | 12.0 | 0.00 | 0.93 | 0.00 | 78 | 1008.9 |
| 20260905082541 | 68 | 360 | 4.0 | 16.0 | 0.00 | 0.93 | 0.00 | 78 | 1008.8 |
| 20260905082041 | 69 | 92 | 6.0 | 16.0 | 0.00 | 0.93 | 0.00 | 77 | 1008.9 |
| 20260905081550 | 69 | 348 | 5.0 | 13.0 | 0.00 | 0.93 | 0.00 | 77 | 1008.9 |
| 20260905081043 | 69 | 342 | 4.0 | 13.0 | 0.00 | 0.93 | 0.00 | 77 | 1008.9 |
| 20260905080541 | 69 | 40 | 6.0 | 13.0 | 0.00 | 0.93 | 0.00 | 77 | 1009.0 |
| 20260905080048 | 69 | 9 | 4.0 | 12.0 | 0.00 | 0.93 | 0.00 | 76 | 1009.0 |
| 20260905075540 | 69 | 311 | 6.0 | 12.0 | 0.00 | 1.16 | 0.00 | 76 | 1008.9 |
| 20260905075042 | 69 | 333 | 4.0 | 12.0 | 0.00 | 1.16 | 0.00 | 76 | 1008.9 |
| 20260905074600 | 69 | 305 | 4.0 | 13.0 | 0.00 | 1.16 | 0.00 | 75 | 1008.8 |
| 20260905074042 | 69 | 5 | 3.0 | 13.0 | 0.00 | 1.16 | 0.00 | 75 | 1008.7 |
| 20260905073541 | 69 | 19 | 4.0 | 13.0 | 0.00 | 1.16 | 0.00 | 75 | 1008.7 |
| 20260905073105 | 69 | 42 | 5.0 | 11.0 | 0.00 | 1.16 | 0.00 | 75 | 1008.7 |
| 20260905072542 | 70 | 26 | 6.0 | 12.0 | 0.00 | 1.16 | 0.00 | 75 | 1008.9 |
| 20260905072041 | 69 | 360 | 3.0 | 14.0 | 0.00 | 1.16 | 0.00 | 75 | 1008.9 |
| 20260905071551 | 70 | 253 | 6.0 | 14.0 | 0.00 | 1.16 | 0.00 | 75 | 1008.9 |
| 20260905071044 | 70 | 339 | 5.0 | 13.0 | 0.00 | 1.16 | 0.00 | 75 | 1008.9 |
| 20260905070543 | 70 | 283 | 5.0 | 11.0 | 0.00 | 1.16 | 0.00 | 75 | 1008.9 |
| 20260905065546 | 70 | 11 | 4.0 | 13.0 | 0.00 | 1.16 | 0.00 | 75 | 1009.0 |
| 20260905065048 | 70 | 350 | 3.0 | 13.0 | 0.00 | 1.16 | 0.00 | 75 | 1009.1 |
| 20260905064610 | 70 | 281 | 5.0 | 10.0 | 0.00 | 1.16 | 0.00 | 74 | 1009.1 |
| 20260905064041 | 70 | 352 | 5.0 | 10.0 | 0.00 | 1.16 | 0.00 | 74 | 1009.1 |
| 20260905063547 | 70 | 12 | 4.0 | 13.0 | 0.00 | 1.16 | 0.00 | 74 | 1009.0 |
| 20260905063056 | 70 | 23 | 3.0 | 13.0 | 0.00 | 1.16 | 0.00 | 74 | 1009.1 |
| 20260905062541 | 70 | 343 | 4.0 | 12.0 | 0.00 | 1.16 | 0.00 | 74 | 1009.1 |
| 20260905062040 | 70 | 321 | 4.0 | 19.0 | 0.00 | 1.16 | 0.00 | 74 | 1009.2 |
| 20260905061613 | 71 | 342 | 7.0 | 19.0 | 0.00 | 1.16 | 0.00 | 73 | 1009.0 |
| 20260905061042 | 71 | 9 | 6.0 | 12.0 | 0.00 | 1.16 | 0.00 | 73 | 1009.0 |
| 20260905060541 | 71 | 340 | 4.0 | 10.0 | 0.00 | 1.16 | 0.00 | 73 | 1009.3 |
| 20260905060105 | 71 | 306 | 5.0 | 11.0 | 0.00 | 1.16 | 0.00 | 72 | 1009.4 |
| 20260905055543 | 71 | 19 | 5.0 | 11.0 | 0.00 | 1.16 | 0.00 | 72 | 1009.4 |
| 20260905055045 | 71 | 324 | 5.0 | 11.0 | 0.00 | 1.16 | 0.00 | 72 | 1009.5 |
| 20260905054603 | 71 | 22 | 6.0 | 12.0 | 0.00 | 1.16 | 0.00 | 72 | 1009.5 |
| 20260905054041 | 71 | 344 | 6.0 | 13.0 | 0.00 | 1.16 | 0.00 | 71 | 1009.5 |
| 20260905053542 | 71 | 360 | 5.0 | 13.0 | 0.00 | 1.16 | 0.00 | 71 | 1009.5 |
| 20260905053053 | 71 | 360 | 6.0 | 13.0 | 0.00 | 1.16 | 0.00 | 71 | 1009.5 |
| 20260905052542 | 71 | 347 | 5.0 | 15.0 | 0.00 | 1.16 | 0.00 | 70 | 1009.6 |
| 20260905052041 | 72 | 351 | 7.0 | 15.0 | 0.00 | 1.16 | 0.00 | 70 | 1009.6 |
| 20260905051610 | 71 | 320 | 7.0 | 14.0 | 0.00 | 1.16 | 0.00 | 71 | 1009.6 |
| 20260905051041 | 71 | 360 | 7.0 | 13.0 | 0.00 | 1.16 | 0.00 | 72 | 1009.7 |
| 20260905050541 | 71 | 344 | 4.0 | 10.0 | 0.00 | 1.16 | 0.00 | 73 | 1009.9 |
| 20260905050105 | 71 | 341 | 4.0 | 9.0 | 0.00 | 1.16 | 0.00 | 73 | 1009.9 |
| 20260905045544 | 71 | 9 | 2.0 | 8.0 | 0.00 | 1.16 | 0.00 | 74 | 1010.0 |
| 20260905045044 | 71 | 321 | 2.0 | 8.0 | 0.00 | 1.16 | 0.00 | 74 | 1010.0 |
| 20260905044600 | 71 | 9 | 1.0 | 8.0 | 0.00 | 1.16 | 0.00 | 75 | 1010.0 |
| 20260905044044 | 70 | 339 | 2.0 | 8.0 | 0.00 | 1.16 | 0.00 | 75 | 1010.1 |
| 20260905043541 | 71 | 355 | 3.0 | 8.0 | 0.00 | 1.16 | 0.00 | 76 | 1010.1 |
| 20260905043055 | 71 | 18 | 2.0 | 8.0 | 0.00 | 1.16 | 0.00 | 76 | 1010.1 |
| 20260905042544 | 71 | 342 | 3.0 | 8.0 | 0.00 | 1.16 | 0.00 | 76 | 1010.0 |
| 20260905042042 | 71 | 360 | 3.0 | 8.0 | 0.00 | 1.16 | 0.00 | 75 | 1010.0 |
| 20260905041553 | 71 | 300 | 3.0 | 9.0 | 0.00 | 1.16 | 0.00 | 75 | 1010.2 |
| 20260905041040 | 71 | 28 | 3.0 | 9.0 | 0.00 | 1.16 | 0.00 | 75 | 1010.1 |
| 20260905040541 | 71 | 352 | 3.0 | 9.0 | 0.00 | 1.16 | 0.00 | 76 | 1010.2 |
| 20260905040059 | 71 | 22 | 4.0 | 9.0 | 0.00 | 1.16 | 0.00 | 77 | 1010.1 |
| 20260905035542 | 71 | 349 | 2.0 | 8.0 | 0.00 | 1.16 | 1.16 | 77 | 1010.2 |
| 20260905035041 | 71 | 337 | 2.0 | 8.0 | 0.00 | 1.16 | 1.16 | 78 | 1010.2 |
| 20260905034607 | 71 | 350 | 2.0 | 6.0 | 0.00 | 1.16 | 1.16 | 77 | 1010.2 |
| 20260905034040 | 71 | 35 | 2.0 | 5.0 | 0.00 | 1.16 | 1.16 | 77 | 1010.1 |
| 20260905033542 | 71 | 344 | 1.0 | 6.0 | 0.00 | 1.16 | 1.16 | 77 | 1010.0 |
| 20260905033104 | 71 | 325 | 2.0 | 6.0 | 0.00 | 1.16 | 1.16 | 77 | 1010.1 |
| 20260905032543 | 71 | 342 | 3.0 | 5.0 | 0.00 | 1.16 | 1.16 | 77 | 1010.2 |
| 20260905032042 | 71 | 348 | 2.0 | 5.0 | 0.00 | 1.16 | 1.16 | 77 | 1010.2 |
| 20260905031558 | 71 | 342 | 2.0 | 5.0 | 0.00 | 1.16 | 1.16 | 77 | 1010.1 |
| 20260905031040 | 71 | 352 | 2.0 | 6.0 | 0.00 | 1.16 | 1.16 | 78 | 1010.2 |
| 20260905030542 | 71 | 11 | 3.0 | 6.0 | 0.00 | 1.16 | 1.16 | 78 | 1010.0 |
| 20260905030057 | 71 | 321 | 3.0 | 6.0 | 0.00 | 1.16 | 1.16 | 79 | 1010.1 |
| 20260905025540 | 71 | 322 | 3.0 | 5.0 | 0.00 | 1.16 | 1.16 | 79 | 1010.1 |
| 20260905025045 | 71 | 302 | 2.0 | 5.0 | 0.00 | 1.16 | 1.16 | 80 | 1010.0 |
| 20260905024553 | 71 | 326 | 2.0 | 5.0 | 0.00 | 1.16 | 1.16 | 81 | 1009.9 |
| 20260905024041 | 71 | 313 | 2.0 | 5.0 | 0.00 | 1.16 | 1.16 | 82 | 1010.0 |
| 20260905023543 | 72 | 333 | 1.0 | 4.0 | 0.00 | 1.16 | 1.16 | 82 | 1010.0 |
| 20260905023124 | 72 | 329 | 2.0 | 4.0 | 0.00 | 1.16 | 1.16 | 82 | 1010.0 |
| 20260905022542 | 72 | 306 | 1.0 | 4.0 | 0.00 | 1.16 | 1.16 | 83 | 1009.9 |
| 20260905022040 | 72 | 323 | 0.0 | 4.0 | 0.00 | 1.16 | 1.16 | 83 | 1010.0 |
| 20260905021549 | 72 | 329 | 0.0 | 3.0 | 0.00 | 1.16 | 1.16 | 82 | 1010.1 |
| 20260905021041 | 72 | 305 | 0.0 | 3.0 | 0.00 | 1.16 | 1.16 | 83 | 1010.0 |
| 20260905020543 | 73 | 310 | 0.0 | 3.0 | 0.00 | 1.16 | 1.16 | 82 | 1010.1 |
| 20260905020100 | 73 | 0 | 2.0 | 3.0 | 0.00 | 1.16 | 1.16 | 82 | 1010.1 |
| 20260905015541 | 73 | 309 | 2.0 | 3.0 | 0.00 | 1.16 | 1.16 | 81 | 1010.1 |
| 20260905015042 | 73 | 294 | 1.0 | 3.0 | 0.00 | 1.16 | 1.16 | 81 | 1010.0 |
| 20260905014555 | 74 | 287 | 1.0 | 3.0 | 0.00 | 1.16 | 1.16 | 80 | 1010.0 |
| 20260905014042 | 74 | 308 | 1.0 | 3.0 | 0.00 | 1.16 | 1.16 | 80 | 1009.8 |
| 20260905013545 | 74 | 308 | 1.0 | 3.0 | 0.00 | 1.16 | 1.16 | 80 | 1009.9 |
| 20260905013058 | 74 | 315 | 1.0 | 3.0 | 0.00 | 1.16 | 1.16 | 79 | 1009.9 |
| 20260905012543 | 75 | 333 | 1.0 | 3.0 | 0.00 | 1.16 | 1.16 | 79 | 1010.0 |
| 20260905012043 | 75 | 323 | 0.0 | 2.0 | 0.00 | 1.16 | 1.16 | 79 | 1010.0 |
| 20260905011600 | 75 | 0 | 0.0 | 2.0 | 0.00 | 1.16 | 1.16 | 79 | 1009.9 |
| 20260905011043 | 75 | 317 | 0.0 | 2.0 | 0.00 | 1.16 | 1.16 | 78 | 1010.0 |
| 20260905010544 | 75 | 308 | 0.0 | 3.0 | 0.00 | 1.16 | 1.16 | 78 | 1010.2 |
| 20260905010055 | 76 | 308 | 1.0 | 3.0 | 0.00 | 1.16 | 1.16 | 77 | 1010.1 |
| 20260905005545 | 76 | 320 | 2.0 | 3.0 | 0.00 | 1.16 | 1.16 | 77 | 1010.1 |
| 20260905005042 | 76 | 315 | 1.0 | 2.0 | 0.00 | 1.16 | 1.16 | 76 | 1010.1 |
| 20260905004553 | 76 | 0 | 0.0 | 1.0 | 0.00 | 1.16 | 1.16 | 76 | 1010.1 |
| 20260905004042 | 76 | 331 | 0.0 | 1.0 | 0.00 | 1.16 | 1.16 | 75 | 1010.1 |
| 20260905003544 | 76 | 0 | 0.0 | 1.0 | 0.00 | 1.16 | 1.16 | 74 | 1010.0 |
| 20260905003100 | 76 | 0 | 0.0 | 1.0 | 0.00 | 1.16 | 1.16 | 74 | 1010.0 |
| 20260905002541 | 76 | 0 | 0.0 | 1.0 | 0.00 | 1.16 | 1.16 | 73 | 1009.9 |
| 20260905002045 | 77 | 0 | 0.0 | 1.0 | 0.00 | 1.16 | 1.16 | 72 | 1009.9 |
| 20260905001601 | 77 | 0 | 0.0 | 1.0 | 0.00 | 1.16 | 1.16 | 71 | 1009.8 |
| 20260905001044 | 77 | 0 | 0.0 | 2.0 | 0.00 | 1.16 | 1.16 | 70 | 1009.8 |
| 20260905000545 | 77 | 0 | 0.0 | 2.0 | 0.00 | 1.16 | 1.16 | 70 | 1009.8 |
| 20260905000113 | 77 | 0 | 1.0 | 2.0 | 0.00 | 1.16 | 1.16 | 70 | 1009.8 |
| 20260904235543 | 77 | 319 | 1.0 | 2.0 | 0.00 | 1.16 | 1.16 | 69 | 1009.8 |
| 20260904235042 | 78 | 322 | 1.0 | 2.0 | 0.00 | 1.16 | 1.16 | 69 | 1009.8 |
| 20260904234555 | 78 | 0 | 0.0 | 3.0 | 0.00 | 1.16 | 1.16 | 68 | 1009.7 |
| 20260904234042 | 78 | 0 | 1.0 | 3.0 | 0.00 | 1.16 | 1.16 | 67 | 1009.7 |
| 20260904233543 | 78 | 11 | 1.0 | 3.0 | 0.00 | 1.16 | 1.16 | 67 | 1009.6 |
| 20260904233051 | 78 | 5 | 2.0 | 4.0 | 0.00 | 1.16 | 1.16 | 67 | 1009.6 |
| 20260904232542 | 79 | 15 | 2.0 | 4.0 | 0.00 | 1.16 | 1.16 | 66 | 1009.7 |
| 20260904232042 | 79 | 28 | 1.0 | 4.0 | 0.00 | 1.16 | 1.16 | 66 | 1009.5 |
| 20260904231602 | 79 | 21 | 2.0 | 6.0 | 0.00 | 1.16 | 1.16 | 66 | 1009.6 |
| 20260904231042 | 80 | 13 | 3.0 | 8.0 | 0.00 | 1.16 | 1.16 | 65 | 1009.6 |
| 20260904230545 | 80 | 29 | 4.0 | 8.0 | 0.00 | 1.16 | 1.16 | 64 | 1009.6 |
| 20260904230058 | 81 | 61 | 2.0 | 5.0 | 0.00 | 1.16 | 1.16 | 63 | 1009.6 |
| 20260904225542 | 81 | 340 | 2.0 | 6.0 | 0.00 | 1.16 | 1.16 | 61 | 1009.6 |
| 20260904225042 | 82 | 352 | 2.0 | 6.0 | 0.00 | 1.16 | 1.16 | 61 | 1009.6 |
| 20260904224602 | 82 | 22 | 0.0 | 6.0 | 0.00 | 1.16 | 1.16 | 60 | 1009.4 |
| 20260904224043 | 82 | 331 | 1.0 | 6.0 | 0.00 | 1.16 | 1.16 | 60 | 1009.5 |
| 20260904223545 | 82 | 338 | 1.0 | 5.0 | 0.00 | 1.16 | 1.16 | 60 | 1009.5 |
| 20260904223102 | 83 | 13 | 1.0 | 5.0 | 0.00 | 1.16 | 1.16 | 59 | 1009.6 |
| 20260904222544 | 83 | 292 | 1.0 | 5.0 | 0.00 | 1.16 | 1.16 | 60 | 1009.6 |
| 20260904222041 | 83 | 329 | 1.0 | 6.0 | 0.00 | 1.16 | 1.16 | 58 | 1009.6 |
| 20260904221604 | 82 | 298 | 1.0 | 6.0 | 0.00 | 1.16 | 1.16 | 59 | 1009.4 |
| 20260904221042 | 83 | 315 | 2.0 | 5.0 | 0.00 | 1.16 | 1.16 | 58 | 1009.4 |
| 20260904220543 | 82 | 281 | 2.0 | 5.0 | 0.00 | 1.16 | 1.16 | 59 | 1009.5 |
| 20260904220118 | 82 | 294 | 2.0 | 8.0 | 0.00 | 1.16 | 1.16 | 59 | 1009.5 |
| 20260904215542 | 82 | 292 | 2.0 | 8.0 | 0.00 | 1.16 | 1.16 | 60 | 1009.5 |
| 20260904215045 | 82 | 292 | 2.0 | 8.0 | 0.00 | 1.16 | 1.16 | 60 | 1009.4 |
| 20260904214556 | 82 | 331 | 3.0 | 10.0 | 0.00 | 1.16 | 1.16 | 60 | 1009.3 |
| 20260904214040 | 82 | 273 | 4.0 | 10.0 | 0.00 | 1.16 | 1.16 | 59 | 1009.5 |
| 20260904213543 | 82 | 285 | 5.0 | 12.0 | 0.00 | 1.16 | 1.16 | 58 | 1009.3 |
| 20260904213101 | 82 | 288 | 5.0 | 12.0 | 0.00 | 1.16 | 1.16 | 58 | 1009.5 |
| 20260904212542 | 82 | 252 | 7.0 | 12.0 | 0.00 | 1.16 | 1.16 | 58 | 1009.4 |
| 20260904212044 | 82 | 276 | 5.0 | 13.0 | 0.00 | 1.16 | 1.16 | 58 | 1009.3 |
| 20260904211559 | 83 | 266 | 4.0 | 14.0 | 0.00 | 1.16 | 1.16 | 57 | 1009.3 |
| 20260904211041 | 83 | 260 | 6.0 | 14.0 | 0.00 | 1.16 | 1.16 | 57 | 1009.4 |
| 20260904210541 | 83 | 352 | 4.0 | 11.0 | 0.00 | 1.16 | 1.16 | 57 | 1009.5 |
| 20260904205541 | 83 | 336 | 4.0 | 10.0 | 0.00 | 1.16 | 1.16 | 57 | 1009.5 |
| 20260904205041 | 83 | 309 | 3.0 | 10.0 | 0.00 | 1.16 | 1.16 | 58 | 1009.6 |
| 20260904204600 | 83 | 311 | 5.0 | 10.0 | 0.00 | 1.16 | 1.16 | 57 | 1009.7 |
| 20260904204045 | 83 | 334 | 3.0 | 10.0 | 0.00 | 1.16 | 1.16 | 58 | 1009.6 |
| 20260904203541 | 83 | 317 | 3.0 | 10.0 | 0.00 | 1.16 | 1.16 | 57 | 1009.6 |
| 20260904203057 | 83 | 300 | 4.0 | 9.0 | 0.00 | 1.16 | 1.16 | 56 | 1009.7 |
| 20260904202541 | 83 | 360 | 5.0 | 9.0 | 0.00 | 1.16 | 1.16 | 58 | 1009.6 |
| 20260904202041 | 83 | 0 | 4.0 | 13.0 | 0.00 | 1.16 | 1.16 | 57 | 1009.7 |
| 20260904201556 | 82 | 317 | 6.0 | 13.0 | 0.00 | 1.16 | 1.16 | 58 | 1009.6 |
| 20260904201040 | 83 | 277 | 7.0 | 13.0 | 0.00 | 1.16 | 1.16 | 57 | 1009.7 |
| 20260904200541 | 83 | 341 | 6.0 | 13.0 | 0.00 | 1.16 | 1.16 | 56 | 1009.7 |
| 20260904200056 | 83 | 351 | 5.0 | 11.0 | 0.00 | 1.16 | 1.16 | 57 | 1009.7 |
| 20260904195541 | 83 | 38 | 3.0 | 16.0 | 0.00 | 1.16 | 1.16 | 57 | 1009.6 |
| 20260904195042 | 82 | 301 | 5.0 | 16.0 | 0.00 | 1.16 | 1.16 | 58 | 1009.7 |
| 20260904194608 | 82 | 338 | 7.0 | 16.0 | 0.00 | 1.16 | 1.16 | 57 | 1009.7 |
| 20260904194042 | 82 | 9 | 6.0 | 15.0 | 0.00 | 1.16 | 1.16 | 58 | 1009.7 |
| 20260904193541 | 82 | 342 | 6.0 | 15.0 | 0.00 | 1.16 | 1.16 | 58 | 1009.8 |
| 20260904193113 | 82 | 332 | 8.0 | 15.0 | 0.00 | 1.16 | 1.16 | 57 | 1010.0 |
| 20260904192540 | 82 | 360 | 7.0 | 14.0 | 0.00 | 1.16 | 1.16 | 57 | 1009.9 |
| 20260904192040 | 82 | 267 | 6.0 | 15.0 | 0.00 | 1.16 | 1.16 | 58 | 1010.0 |
| 20260904191554 | 81 | 304 | 8.0 | 15.0 | 0.00 | 1.16 | 1.16 | 58 | 1010.1 |
| 20260904191042 | 82 | 327 | 5.0 | 11.0 | 0.00 | 1.16 | 1.16 | 58 | 1010.1 |
| 20260904190541 | 81 | 302 | 3.0 | 13.0 | 0.00 | 1.16 | 1.16 | 58 | 1010.3 |
| 20260904190051 | 82 | 15 | 5.0 | 13.0 | 0.00 | 1.16 | 1.16 | 58 | 1010.4 |
| 20260904185541 | 82 | 49 | 4.0 | 12.0 | 0.00 | 1.16 | 1.16 | 59 | 1010.2 |
| 20260904185043 | 82 | 352 | 5.0 | 12.0 | 0.00 | 1.16 | 1.16 | 59 | 1010.1 |
| 20260904184556 | 82 | 352 | 4.0 | 15.0 | 0.00 | 1.16 | 1.16 | 58 | 1010.2 |
| 20260904184042 | 81 | 352 | 6.0 | 15.0 | 0.00 | 1.16 | 1.16 | 58 | 1010.1 |
| 20260904183541 | 82 | 323 | 9.0 | 15.0 | 0.00 | 1.16 | 1.16 | 56 | 1010.3 |
| 20260904183058 | 82 | 9 | 5.0 | 16.0 | 0.00 | 1.16 | 1.16 | 57 | 1010.4 |
| 20260904182540 | 82 | 313 | 7.0 | 16.0 | 0.00 | 1.16 | 1.16 | 59 | 1010.4 |
| 20260904182041 | 82 | 360 | 5.0 | 13.0 | 0.00 | 1.16 | 1.16 | 60 | 1010.4 |
| 20260904181601 | 82 | 284 | 4.0 | 15.0 | 0.00 | 1.16 | 1.16 | 59 | 1010.3 |
| 20260904181042 | 81 | 360 | 7.0 | 15.0 | 0.00 | 1.16 | 1.16 | 59 | 1010.2 |
| 20260904180541 | 81 | 352 | 8.0 | 15.0 | 0.00 | 1.16 | 1.16 | 58 | 1010.3 |
| 20260904180116 | 82 | 345 | 8.0 | 15.0 | 0.00 | 1.16 | 1.16 | 57 | 1010.3 |
| 20260904175541 | 81 | 248 | 6.0 | 16.0 | 0.00 | 1.16 | 1.16 | 58 | 1010.2 |